RYL056 RCTP-RPLL

Flight info

Callsign RYL056
Flight time 1h 40m
Altitude 38000
Route TINHO1C TINHO Q11 POTIB M646 LAO/N0455F390 B462 CAB CAB1D
Aircraft A20N/M-SDE2E3FGHIRWXY/LB1

Departure

Time 2026-05-05 15:39
Airport Taiwan Taoyuan International Airport (RCTP)

Arrival

Time 2026-05-05 17:20
Airport Ninoy Aquino International Airport (RPLL)
Time Latitude Longitude Altitude Speed Heading
2026-05-05 15:01 25.08171 121.23388 115 ft 0 kts 142°
2026-05-05 15:04 25.08199 121.23472 114 ft 0 kts 140°
2026-05-05 15:24 25.08200 121.23472 115 ft 0 kts 140°
2026-05-05 15:24 25.08210 121.23462 115 ft 2 kts 139°
2026-05-05 15:24 25.08222 121.23451 115 ft 2 kts 140°
2026-05-05 15:24 25.08233 121.23441 115 ft 2 kts 139°
2026-05-05 15:25 25.08245 121.23430 115 ft 2 kts 140°
2026-05-05 15:25 25.08256 121.23419 115 ft 2 kts 139°
2026-05-05 15:25 25.08267 121.23408 115 ft 2 kts 140°
2026-05-05 15:25 25.08279 121.23398 115 ft 2 kts 139°
2026-05-05 15:26 25.08291 121.23387 115 ft 2 kts 152°
2026-05-05 15:26 25.08305 121.23383 115 ft 2 kts 184°
2026-05-05 15:26 25.08319 121.23388 115 ft 2 kts 213°
2026-05-05 15:26 25.08326 121.23393 115 ft 1 kts 230°
2026-05-05 15:27 25.08329 121.23399 115 ft 0 kts 230°
2026-05-05 15:31 25.08324 121.23392 114 ft 2 kts 230°
2026-05-05 15:31 25.08303 121.23365 114 ft 10 kts 228°
2026-05-05 15:32 25.08253 121.23303 115 ft 11 kts 228°
2026-05-05 15:32 25.08202 121.23238 115 ft 11 kts 230°
2026-05-05 15:32 25.08171 121.23196 114 ft 4 kts 248°
2026-05-05 15:32 25.08172 121.23159 115 ft 5 kts 288°
2026-05-05 15:33 25.08192 121.23122 114 ft 6 kts 306°
2026-05-05 15:33 25.08209 121.23077 115 ft 7 kts 281°
2026-05-05 15:33 25.08194 121.23035 115 ft 7 kts 194°
2026-05-05 15:33 25.08151 121.23004 115 ft 7 kts 224°
2026-05-05 15:34 25.08113 121.22957 114 ft 9 kts 228°
2026-05-05 15:34 25.08064 121.22896 115 ft 10 kts 229°
2026-05-05 15:34 25.08013 121.22831 114 ft 11 kts 229°
2026-05-05 15:34 25.07961 121.22762 115 ft 11 kts 230°
2026-05-05 15:35 25.07906 121.22693 115 ft 12 kts 228°
2026-05-05 15:35 25.07840 121.22610 115 ft 17 kts 229°
2026-05-05 15:35 25.07745 121.22490 114 ft 21 kts 229°
2026-05-05 15:35 25.07649 121.22369 115 ft 20 kts 228°
2026-05-05 15:36 25.07566 121.22261 115 ft 18 kts 229°
2026-05-05 15:36 25.07466 121.22134 115 ft 26 kts 229°
2026-05-05 15:36 25.07348 121.21986 115 ft 25 kts 228°
2026-05-05 15:36 25.07244 121.21854 115 ft 21 kts 228°
2026-05-05 15:37 25.07174 121.21744 114 ft 9 kts 270°
2026-05-05 15:37 25.07175 121.21734 114 ft 0 kts 281°
2026-05-05 15:37 25.07178 121.21725 114 ft 1 kts 291°
2026-05-05 15:37 25.07202 121.21688 114 ft 11 kts 317°
2026-05-05 15:38 25.07268 121.21632 114 ft 9 kts 341°
2026-05-05 15:38 25.07324 121.21645 115 ft 8 kts 41°
2026-05-05 15:38 25.07327 121.21649 114 ft 0 kts 45°
2026-05-05 15:38 25.07367 121.21697 115 ft 32 kts 49°
2026-05-05 15:39 25.07692 121.22111 115 ft 107 kts 49°
2026-05-05 15:39 25.08313 121.22901 148 ft 160 kts 49°
2026-05-05 15:39 25.09083 121.23877 601 ft 171 kts 49°
2026-05-05 15:39 25.09833 121.24831 1262 ft 172 kts 49°
2026-05-05 15:40 25.10591 121.25800 1938 ft 169 kts 49°
2026-05-05 15:40 25.11377 121.26807 2422 ft 181 kts 50°
2026-05-05 15:40 25.12232 121.27906 2836 ft 198 kts 50°
2026-05-05 15:40 25.13166 121.29108 3286 ft 215 kts 50°
2026-05-05 15:41 25.14164 121.30402 3714 ft 234 kts 50°
2026-05-05 15:41 25.15273 121.31846 4124 ft 257 kts 51°
2026-05-05 15:41 25.16465 121.33396 4685 ft 274 kts 51°
2026-05-05 15:41 25.17718 121.35023 5483 ft 281 kts 51°
2026-05-05 15:42 25.18981 121.36664 6275 ft 287 kts 51°
2026-05-05 15:42 25.20255 121.38314 7477 ft 277 kts 52°
2026-05-05 15:42 25.21450 121.39864 8655 ft 266 kts 52°
2026-05-05 15:42 25.22605 121.41364 9757 ft 256 kts 53°
2026-05-05 15:43 25.23749 121.42857 10645 ft 254 kts 53°
2026-05-05 15:43 25.24870 121.44321 11425 ft 254 kts 53°
2026-05-05 15:43 25.26008 121.45808 12205 ft 255 kts 52°
2026-05-05 15:43 25.27150 121.47297 12940 ft 256 kts 53°
2026-05-05 15:44 25.28239 121.48825 13601 ft 258 kts 64°
2026-05-05 15:44 25.28762 121.50703 14247 ft 256 kts 90°
2026-05-05 15:44 25.28471 121.52629 14818 ft 261 kts 114°
2026-05-05 15:44 25.27401 121.54248 15394 ft 267 kts 140°
2026-05-05 15:45 25.25796 121.55168 16114 ft 269 kts 165°
2026-05-05 15:45 25.23914 121.55200 16743 ft 278 kts 192°
2026-05-05 15:45 25.22108 121.54372 17387 ft 283 kts 201°
2026-05-05 15:45 25.20281 121.53682 17998 ft 280 kts 182°
2026-05-05 15:46 25.18385 121.53927 18580 ft 276 kts 155°
2026-05-05 15:46 25.16674 121.54842 19197 ft 276 kts 151°
2026-05-05 15:46 25.14963 121.55839 19665 ft 283 kts 150°
2026-05-05 15:46 25.13186 121.56888 19922 ft 298 kts 150°
2026-05-05 15:47 25.11313 121.57996 20210 ft 314 kts 150°
2026-05-05 15:47 25.09367 121.59148 20530 ft 331 kts 150°
2026-05-05 15:47 25.07276 121.60387 20835 ft 348 kts 150°
2026-05-05 15:47 25.05080 121.61687 21125 ft 365 kts 150°
2026-05-05 15:48 25.02799 121.63040 21400 ft 380 kts 150°
2026-05-05 15:48 25.00441 121.64438 21659 ft 395 kts 150°
2026-05-05 15:48 24.97964 121.65909 21910 ft 409 kts 150°
2026-05-05 15:48 24.95457 121.67408 22140 ft 422 kts 150°
2026-05-05 15:49 24.92804 121.68992 22367 ft 434 kts 150°
2026-05-05 15:49 24.90123 121.70588 22572 ft 446 kts 150°
2026-05-05 15:49 24.87372 121.72216 22766 ft 456 kts 150°
2026-05-05 15:49 24.84526 121.73892 22938 ft 465 kts 150°
2026-05-05 15:50 24.81688 121.75563 23073 ft 472 kts 150°
2026-05-05 15:50 24.78749 121.77295 23212 ft 478 kts 150°
2026-05-05 15:50 24.75857 121.78999 23435 ft 480 kts 150°
2026-05-05 15:50 24.72909 121.80736 23699 ft 482 kts 150°
2026-05-05 15:51 24.69935 121.82488 23949 ft 483 kts 150°
2026-05-05 15:51 24.66985 121.84227 24175 ft 484 kts 150°
2026-05-05 15:51 24.64026 121.85970 24387 ft 486 kts 150°
2026-05-05 15:51 24.61029 121.87734 24638 ft 488 kts 151°
2026-05-05 15:52 24.58053 121.89486 24960 ft 486 kts 151°
2026-05-05 15:52 24.55095 121.91225 25279 ft 485 kts 151°
2026-05-05 15:52 24.52105 121.92984 25566 ft 484 kts 151°
2026-05-05 15:52 24.49139 121.94727 25840 ft 483 kts 151°
2026-05-05 15:53 24.46212 121.96447 26112 ft 483 kts 151°
2026-05-05 15:53 24.43253 121.98184 26389 ft 482 kts 151°
2026-05-05 15:53 24.40307 121.99908 26664 ft 481 kts 152°
2026-05-05 15:53 24.37211 122.01248 26887 ft 483 kts 165°
2026-05-05 15:54 24.33899 122.01736 27132 ft 485 kts 178°
2026-05-05 15:54 24.30551 122.01330 27391 ft 486 kts 192°
2026-05-05 15:54 24.27308 122.00340 27692 ft 485 kts 195°
2026-05-05 15:54 24.24067 121.99264 27933 ft 485 kts 195°
2026-05-05 15:55 24.20864 121.98188 28118 ft 486 kts 195°
2026-05-05 15:55 24.17610 121.97103 28326 ft 486 kts 195°
2026-05-05 15:55 24.14427 121.96051 28542 ft 485 kts 195°
2026-05-05 15:55 24.11179 121.94985 28762 ft 485 kts 195°
2026-05-05 15:56 24.07956 121.93932 28977 ft 484 kts 195°
2026-05-05 15:56 24.04746 121.92887 29186 ft 483 kts 195°
2026-05-05 15:56 24.01571 121.91855 29388 ft 483 kts 195°
2026-05-05 15:56 23.98320 121.90799 29591 ft 482 kts 195°
2026-05-05 15:57 23.95117 121.89761 29786 ft 481 kts 195°
2026-05-05 15:57 23.91965 121.88739 29974 ft 481 kts 195°
2026-05-05 15:57 23.88758 121.87701 30161 ft 480 kts 195°
2026-05-05 15:57 23.85529 121.86660 30349 ft 479 kts 195°
2026-05-05 15:58 23.82337 121.85628 30529 ft 479 kts 195°
2026-05-05 15:58 23.79200 121.84611 30702 ft 478 kts 195°
2026-05-05 15:58 23.75994 121.83571 30874 ft 478 kts 195°
2026-05-05 15:58 23.72827 121.82544 31038 ft 477 kts 195°
2026-05-05 15:59 23.69619 121.81506 31203 ft 476 kts 195°
2026-05-05 15:59 23.66457 121.80484 31363 ft 476 kts 195°
2026-05-05 15:59 23.63297 121.79463 31523 ft 475 kts 195°
2026-05-05 15:59 23.60113 121.78436 31682 ft 475 kts 195°
2026-05-05 16:00 23.56995 121.77427 31836 ft 474 kts 195°
2026-05-05 16:00 23.53800 121.76390 31992 ft 474 kts 195°
2026-05-05 16:00 23.50643 121.75367 32147 ft 473 kts 195°
2026-05-05 16:00 23.47554 121.74367 32521 ft 467 kts 195°
2026-05-05 16:01 23.44496 121.73377 33262 ft 454 kts 195°
2026-05-05 16:01 23.41519 121.72415 33847 ft 445 kts 195°
2026-05-05 16:01 23.38563 121.71459 34161 ft 443 kts 195°
2026-05-05 16:01 23.35636 121.70513 34345 ft 443 kts 195°
2026-05-05 16:02 23.32687 121.69562 34497 ft 445 kts 195°
2026-05-05 16:02 23.29708 121.68601 34655 ft 445 kts 195°
2026-05-05 16:02 23.26755 121.67651 34815 ft 446 kts 195°
2026-05-05 16:02 23.23764 121.66688 34971 ft 447 kts 195°
2026-05-05 16:03 23.20789 121.65731 35117 ft 447 kts 195°
2026-05-05 16:03 23.17826 121.64779 35255 ft 448 kts 195°
2026-05-05 16:03 23.14826 121.63815 35388 ft 449 kts 195°
2026-05-05 16:03 23.11847 121.62859 35515 ft 449 kts 195°
2026-05-05 16:04 23.08874 121.61906 35639 ft 450 kts 195°
2026-05-05 16:04 23.05881 121.60947 35760 ft 450 kts 195°
2026-05-05 16:04 23.02876 121.59984 35876 ft 450 kts 195°
2026-05-05 16:05 22.96892 121.58063 35959 ft 452 kts 195°
2026-05-05 16:05 22.90862 121.56130 35965 ft 452 kts 195°
2026-05-05 16:06 22.84831 121.54210 35967 ft 453 kts 194°
2026-05-05 16:06 22.78817 121.52302 35967 ft 453 kts 194°
2026-05-05 16:07 22.72782 121.50380 35967 ft 453 kts 195°
2026-05-05 16:07 22.66772 121.48346 35968 ft 454 kts 198°
2026-05-05 16:08 22.60893 121.45825 35968 ft 455 kts 200°
2026-05-05 16:08 22.55042 121.43248 35968 ft 455 kts 200°
2026-05-05 16:09 22.49181 121.40670 35967 ft 455 kts 200°
2026-05-05 16:09 22.43310 121.38091 35967 ft 455 kts 200°
2026-05-05 16:10 22.37449 121.35519 35967 ft 455 kts 200°
2026-05-05 16:10 22.31614 121.32944 35968 ft 458 kts 200°
2026-05-05 16:11 22.25685 121.30325 35968 ft 463 kts 200°
2026-05-05 16:12 22.13690 121.25075 35967 ft 466 kts 200°
2026-05-05 16:13 21.98826 121.18598 35967 ft 455 kts 200°
2026-05-05 16:13 21.93007 121.16051 35967 ft 454 kts 200°
2026-05-05 16:14 21.81253 121.10937 35968 ft 454 kts 200°
2026-05-05 16:15 21.69555 121.05859 35967 ft 453 kts 200°
2026-05-05 16:16 21.57867 121.00790 35967 ft 452 kts 200°
2026-05-05 16:17 21.49121 120.97003 35967 ft 452 kts 200°
2026-05-05 16:18 21.40377 120.93220 35967 ft 452 kts 200°
2026-05-05 16:19 21.31579 120.89421 35967 ft 452 kts 200°
2026-05-05 16:19 21.22853 120.85659 35967 ft 452 kts 200°
2026-05-05 16:20 21.11209 120.80649 35967 ft 452 kts 200°
2026-05-05 16:22 20.96368 120.75781 35967 ft 445 kts 187°
2026-05-05 16:23 20.84098 120.74511 35967 ft 443 kts 182°
2026-05-05 16:23 20.74914 120.73760 35967 ft 443 kts 182°
2026-05-05 16:24 20.68795 120.73257 36107 ft 444 kts 182°
2026-05-05 16:24 20.62660 120.72752 36433 ft 442 kts 182°
2026-05-05 16:25 20.59602 120.72500 36561 ft 442 kts 182°
2026-05-05 16:25 20.53465 120.71995 36790 ft 442 kts 182°
2026-05-05 16:25 20.50437 120.71746 36900 ft 442 kts 182°
2026-05-05 16:26 20.44320 120.71243 37115 ft 442 kts 182°
2026-05-05 16:26 20.38177 120.70739 37319 ft 442 kts 182°
2026-05-05 16:27 20.32057 120.70237 37507 ft 442 kts 182°
2026-05-05 16:27 20.25905 120.69733 37686 ft 442 kts 182°
2026-05-05 16:28 20.19809 120.69233 37849 ft 442 kts 182°
2026-05-05 16:28 20.13677 120.68731 37916 ft 443 kts 182°
2026-05-05 16:29 20.07508 120.68227 37946 ft 443 kts 182°
2026-05-05 16:29 20.01352 120.67723 37959 ft 443 kts 182°
2026-05-05 16:30 19.95179 120.67220 37965 ft 443 kts 182°
2026-05-05 16:30 19.89050 120.66720 37967 ft 443 kts 182°
2026-05-05 16:31 19.82874 120.66218 37967 ft 443 kts 182°
2026-05-05 16:31 19.76724 120.65718 37967 ft 443 kts 182°
2026-05-05 16:32 19.70568 120.65218 37967 ft 443 kts 182°
2026-05-05 16:32 19.64415 120.64717 37967 ft 443 kts 182°
2026-05-05 16:33 19.58282 120.64220 37967 ft 443 kts 182°
2026-05-05 16:33 19.52134 120.63721 37967 ft 443 kts 182°
2026-05-05 16:34 19.45988 120.63225 37967 ft 443 kts 182°
2026-05-05 16:34 19.39868 120.62728 37967 ft 443 kts 182°
2026-05-05 16:35 19.33728 120.62228 37967 ft 443 kts 182°
2026-05-05 16:35 19.27611 120.61732 37967 ft 443 kts 182°
2026-05-05 16:36 19.21479 120.61237 37967 ft 445 kts 182°
2026-05-05 16:36 19.15242 120.60735 37967 ft 449 kts 182°
2026-05-05 16:37 19.08988 120.60229 37967 ft 451 kts 182°
2026-05-05 16:37 19.02729 120.59721 37967 ft 453 kts 182°
2026-05-05 16:38 18.96438 120.59209 37964 ft 455 kts 182°
2026-05-05 16:38 18.90112 120.58698 37957 ft 458 kts 181°
2026-05-05 16:39 18.83742 120.58189 37951 ft 461 kts 181°
2026-05-05 16:39 18.77365 120.57680 37946 ft 463 kts 181°
2026-05-05 16:40 18.70974 120.57168 37943 ft 463 kts 181°
2026-05-05 16:40 18.64573 120.56653 37942 ft 463 kts 181°
2026-05-05 16:41 18.58142 120.56133 37942 ft 463 kts 181°
2026-05-05 16:41 18.51755 120.55621 37942 ft 463 kts 181°
2026-05-05 16:42 18.45320 120.55105 37942 ft 463 kts 181°
2026-05-05 16:42 18.38910 120.54592 37942 ft 463 kts 181°
2026-05-05 16:43 18.32470 120.54078 37942 ft 463 kts 181°
2026-05-05 16:43 18.26053 120.53565 37942 ft 463 kts 181°
2026-05-05 16:44 18.19665 120.53345 37941 ft 461 kts 176°
2026-05-05 16:44 18.13310 120.53834 37941 ft 458 kts 170°
2026-05-05 16:45 18.07026 120.54929 37941 ft 457 kts 167°
2026-05-05 16:45 18.00749 120.56107 37942 ft 457 kts 167°
2026-05-05 16:46 17.94486 120.57266 37942 ft 457 kts 167°
2026-05-05 16:46 17.88218 120.58424 37942 ft 457 kts 167°
2026-05-05 16:47 17.81956 120.59574 37942 ft 457 kts 167°
2026-05-05 16:47 17.75713 120.60727 37942 ft 457 kts 167°
2026-05-05 16:48 17.69449 120.61884 37942 ft 457 kts 167°
2026-05-05 16:48 17.63228 120.63029 37942 ft 457 kts 167°
2026-05-05 16:49 17.56970 120.64182 37942 ft 457 kts 167°
2026-05-05 16:49 17.50691 120.65340 37942 ft 457 kts 167°
2026-05-05 16:50 17.44483 120.66485 37942 ft 457 kts 167°
2026-05-05 16:50 17.38213 120.67641 37942 ft 457 kts 167°
2026-05-05 16:51 17.31971 120.68792 37942 ft 457 kts 167°
2026-05-05 16:51 17.25700 120.69946 37942 ft 457 kts 167°
2026-05-05 16:52 17.19478 120.71089 37942 ft 457 kts 167°
2026-05-05 16:52 17.13242 120.72238 37942 ft 457 kts 167°
2026-05-05 16:53 17.06971 120.73395 37941 ft 458 kts 167°
2026-05-05 16:53 17.00727 120.74547 37941 ft 459 kts 167°
2026-05-05 16:54 16.94410 120.75710 37942 ft 461 kts 168°
2026-05-05 16:54 16.88129 120.76865 37942 ft 461 kts 168°
2026-05-05 16:55 16.81838 120.78015 37942 ft 461 kts 168°
2026-05-05 16:55 16.75538 120.79169 37941 ft 461 kts 168°
2026-05-05 16:56 16.72376 120.79748 37690 ft 460 kts 168°
2026-05-05 16:56 16.69249 120.80322 37442 ft 460 kts 168°
2026-05-05 16:56 16.66080 120.80904 37190 ft 459 kts 168°
2026-05-05 16:56 16.62935 120.81481 36940 ft 459 kts 168°
2026-05-05 16:57 16.59813 120.82054 36692 ft 459 kts 168°
2026-05-05 16:57 16.56658 120.82633 36442 ft 459 kts 167°
2026-05-05 16:57 16.53562 120.83201 36195 ft 459 kts 168°
2026-05-05 16:57 16.50416 120.83778 35945 ft 460 kts 168°
2026-05-05 16:58 16.47274 120.84354 35695 ft 460 kts 167°
2026-05-05 16:58 16.44108 120.84934 35444 ft 461 kts 168°
2026-05-05 16:58 16.40986 120.85506 35196 ft 461 kts 168°
2026-05-05 16:58 16.37966 120.86059 34957 ft 462 kts 167°
2026-05-05 16:59 16.34793 120.86639 34706 ft 463 kts 167°
2026-05-05 16:59 16.31613 120.87221 34455 ft 463 kts 168°
2026-05-05 16:59 16.28472 120.87796 34207 ft 464 kts 168°
2026-05-05 16:59 16.25270 120.88382 33956 ft 465 kts 168°
2026-05-05 17:00 16.22089 120.88963 33705 ft 466 kts 167°
2026-05-05 17:00 16.18932 120.89539 33457 ft 467 kts 167°
2026-05-05 17:00 16.15724 120.90126 33206 ft 468 kts 167°
2026-05-05 17:00 16.12508 120.90713 32954 ft 469 kts 167°
2026-05-05 17:01 16.09320 120.91296 32690 ft 471 kts 167°
2026-05-05 17:01 16.06085 120.91886 32190 ft 472 kts 167°
2026-05-05 17:01 16.02831 120.92480 31478 ft 473 kts 167°
2026-05-05 17:01 15.99630 120.93064 30650 ft 475 kts 167°
2026-05-05 17:02 15.96341 120.93665 29698 ft 479 kts 167°
2026-05-05 17:02 15.93078 120.94260 28771 ft 482 kts 167°
2026-05-05 17:02 15.89784 120.94862 28123 ft 488 kts 168°
2026-05-05 17:02 15.86422 120.95473 27492 ft 492 kts 168°
2026-05-05 17:03 15.83067 120.96081 26874 ft 496 kts 168°
2026-05-05 17:03 15.79661 120.96698 26252 ft 499 kts 168°
2026-05-05 17:03 15.76223 120.97323 25629 ft 502 kts 168°
2026-05-05 17:03 15.72804 120.97945 25008 ft 505 kts 168°
2026-05-05 17:04 15.69377 120.98568 24389 ft 507 kts 168°
2026-05-05 17:04 15.65869 120.99207 23758 ft 507 kts 168°
2026-05-05 17:04 15.62448 120.99830 23145 ft 504 kts 168°
2026-05-05 17:04 15.59009 121.00456 22531 ft 501 kts 168°
2026-05-05 17:05 15.55611 121.01077 21927 ft 498 kts 169°
2026-05-05 17:05 15.52219 121.01694 21323 ft 495 kts 169°
2026-05-05 17:05 15.48822 121.02313 20720 ft 492 kts 169°
2026-05-05 17:05 15.45481 121.03003 20124 ft 488 kts 167°
2026-05-05 17:06 15.42215 121.03713 19539 ft 485 kts 167°
2026-05-05 17:06 15.38889 121.04445 18971 ft 478 kts 167°
2026-05-05 17:06 15.35682 121.05152 18436 ft 468 kts 167°
2026-05-05 17:06 15.32595 121.05832 17865 ft 447 kts 168°
2026-05-05 17:07 15.29637 121.06482 17350 ft 425 kts 168°
2026-05-05 17:07 15.26791 121.07107 16845 ft 412 kts 168°
2026-05-05 17:07 15.24040 121.07710 16354 ft 401 kts 168°
2026-05-05 17:07 15.21340 121.08302 15871 ft 393 kts 168°
2026-05-05 17:08 15.18702 121.08881 15376 ft 387 kts 168°
2026-05-05 17:08 15.16100 121.09450 14862 ft 382 kts 169°
2026-05-05 17:08 15.13538 121.10012 14131 ft 375 kts 169°
2026-05-05 17:08 15.10988 121.10571 12860 ft 380 kts 169°
2026-05-05 17:09 15.08425 121.11131 11693 ft 379 kts 169°
2026-05-05 17:09 15.05896 121.11577 10683 ft 372 kts 179°
2026-05-05 17:09 15.03416 121.11124 9706 ft 360 kts 207°
2026-05-05 17:09 15.01541 121.09821 9193 ft 339 kts 223°
2026-05-05 17:10 14.99895 121.08314 8812 ft 320 kts 224°
2026-05-05 17:10 14.98022 121.06580 8327 ft 303 kts 223°
2026-05-05 17:10 14.96446 121.05162 8006 ft 298 kts 222°
2026-05-05 17:10 14.94889 121.03797 7684 ft 295 kts 221°
2026-05-05 17:11 14.93310 121.02434 7298 ft 293 kts 221°
2026-05-05 17:11 14.91740 121.01093 6913 ft 292 kts 221°
2026-05-05 17:11 14.90179 120.99769 6545 ft 290 kts 220°
2026-05-05 17:11 14.88618 120.98451 6149 ft 289 kts 219°
2026-05-05 17:12 14.87074 120.97152 5928 ft 280 kts 218°
2026-05-05 17:12 14.85601 120.95913 5736 ft 271 kts 218°
2026-05-05 17:12 14.84151 120.94699 5416 ft 267 kts 218°
2026-05-05 17:12 14.82710 120.93497 4948 ft 271 kts 219°
2026-05-05 17:13 14.81216 120.92243 4323 ft 281 kts 219°
2026-05-05 17:13 14.79701 120.90965 4069 ft 279 kts 218°
2026-05-05 17:13 14.78214 120.89710 3945 ft 280 kts 218°
2026-05-05 17:13 14.76687 120.88425 3818 ft 280 kts 219°
2026-05-05 17:14 14.75191 120.87165 3695 ft 279 kts 219°
2026-05-05 17:14 14.73692 120.85899 3571 ft 278 kts 218°
2026-05-05 17:14 14.72215 120.84647 3350 ft 270 kts 218°
2026-05-05 17:14 14.70782 120.83448 3132 ft 262 kts 215°
2026-05-05 17:15 14.69169 120.82677 2974 ft 253 kts 185°
2026-05-05 17:15 14.67491 120.82902 2911 ft 238 kts 156°
2026-05-05 17:15 14.66211 120.83861 2861 ft 226 kts 134°
2026-05-05 17:15 14.65181 120.85072 2829 ft 220 kts 131°
2026-05-05 17:16 14.64196 120.86281 2788 ft 221 kts 131°
2026-05-05 17:16 14.63231 120.87444 2744 ft 219 kts 131°
2026-05-05 17:16 14.62229 120.88650 2692 ft 219 kts 132°
2026-05-05 17:16 14.61241 120.89831 2606 ft 216 kts 133°
2026-05-05 17:17 14.60282 120.90967 2341 ft 204 kts 131°
2026-05-05 17:17 14.59367 120.92048 2099 ft 197 kts 131°
2026-05-05 17:17 14.58493 120.93080 1935 ft 183 kts 131°
2026-05-05 17:17 14.57676 120.94042 1707 ft 170 kts 131°
2026-05-05 17:18 14.56953 120.94899 1659 ft 151 kts 132°
2026-05-05 17:18 14.56266 120.95713 1336 ft 149 kts 132°
2026-05-05 17:18 14.55592 120.96497 973 ft 146 kts 131°
2026-05-05 17:18 14.55043 120.97308 847 ft 134 kts 119°
2026-05-05 17:19 14.54547 120.98116 701 ft 132 kts 127°
2026-05-05 17:19 14.53921 120.98814 530 ft 132 kts 136°
2026-05-05 17:19 14.53273 120.99478 346 ft 131 kts 135°
2026-05-05 17:19 14.52629 121.00141 206 ft 132 kts 134°
2026-05-05 17:20 14.51976 121.00813 89 ft 130 kts 135°
2026-05-05 17:20 14.51500 121.01302 84 ft 56 kts 136°
2026-05-05 17:20 14.51371 121.01430 84 ft 16 kts 136°
2026-05-05 17:20 14.51313 121.01453 84 ft 5 kts 195°
2026-05-05 17:21 14.51308 121.01451 84 ft 0 kts 197°
2026-05-05 17:21 14.51302 121.01447 84 ft 0 kts 211°
2026-05-05 17:21 14.51297 121.01444 84 ft 1 kts 214°
2026-05-05 17:22 14.51263 121.01431 84 ft 4 kts 184°
2026-05-05 17:22 14.51231 121.01440 84 ft 5 kts 148°
2026-05-05 17:22 14.51187 121.01481 84 ft 11 kts 134°
2026-05-05 17:22 14.51121 121.01550 84 ft 15 kts 135°
2026-05-05 17:23 14.51044 121.01630 84 ft 14 kts 135°
2026-05-05 17:23 14.50988 121.01675 84 ft 5 kts 170°
2026-05-05 17:23 14.50949 121.01663 84 ft 6 kts 217°
2026-05-05 17:23 14.50922 121.01623 84 ft 7 kts 240°
2026-05-05 17:24 14.50895 121.01576 84 ft 8 kts 241°
2026-05-05 17:24 14.50867 121.01525 84 ft 8 kts 241°
2026-05-05 17:24 14.50837 121.01469 84 ft 9 kts 240°
2026-05-05 17:24 14.50816 121.01433 84 ft 2 kts 243°
2026-05-05 17:25 14.50818 121.01411 84 ft 3 kts 309°
2026-05-05 17:25 14.50833 121.01401 84 ft 4 kts 329°
2026-05-05 17:25 14.50846 121.01393 84 ft 1 kts 329°
2026-05-05 17:25 14.50859 121.01386 84 ft 2 kts 330°
2026-05-05 17:26 14.50875 121.01376 84 ft 0 kts 330°
2026-05-05 17:26 14.50878 121.01374 84 ft 0 kts 330°
2026-05-05 17:26 14.50887 121.01369 84 ft 2 kts 329°
2026-05-05 17:26 14.50898 121.01362 84 ft 0 kts 329°
2026-05-05 17:27 14.50901 121.01360 84 ft 0 kts 329°
2026-05-05 17:39 14.50899 121.01362 84 ft 2 kts 330°
2026-05-05 17:40 14.50886 121.01369 84 ft 2 kts 330°
2026-05-05 17:40 14.50873 121.01377 84 ft 2 kts 330°
2026-05-05 17:40 14.50860 121.01385 84 ft 2 kts 330°
2026-05-05 17:40 14.50847 121.01392 84 ft 2 kts 330°
2026-05-05 17:41 14.50839 121.01397 84 ft 2 kts 328°